Location: Horse Thief Canyon
(38.0556°N, 100.0260°W)
Time: 18:50:35
(UTC+00:00)

Daily predictions for brighter satellites

Satellite Brightness Start Highest point End
(mag) Time Altitude Azimuth Time Altitude Azimuth Time Altitude Azimuth
NOSS 0 Rocket 4.1 12:00:05 10° NNW 12:06:17 77° ENE 12:12:29 10° SSE
Iridium 51 4.5 12:03:03 10° NNW 12:06:30 38° W 12:09:45 10° SSW
ATLAS 5 CENTAUR R/B 2.3 12:05:18 18° W 12:07:27 29° NW 12:11:14 10° NNE
CZ-2C R/B 4.3 12:06:50 10° NW 12:07:32 10° WNW 12:07:32 10° WNW
Cosmos 1140 Rocket 3.7 12:02:41 10° SW 12:07:41 47° WNW 12:12:41 10° N
H-2A R/B 2.8 12:06:27 10° NNE 12:10:22 87° ESE 12:14:14 10° SSW
RESURS DK-1 2.8 12:07:11 10° SSW 12:11:15 65° ESE 12:15:21 10° NNE
Cosmos 1328 Rocket 3.8 12:07:51 10° SSW 12:11:57 44° W 12:16:06 10° N
Cosmos 1812 3.0 12:08:09 10° S 12:11:58 72° E 12:15:48 10° NNE
CZ-2C R/B 3.9 12:09:50 10° SSW 12:12:38 17° SSE 12:15:27 10° ESE
Cosmos 1515 Rocket 3.5 12:08:56 10° S 12:13:15 82° W 12:17:38 10° N
NOSS 3-4 (A) 4.0 12:09:11 12° WSW 12:14:07 38° NW 12:19:52 10° NNE
NOSS 3-4 (C) 4.0 12:09:14 12° WSW 12:14:12 38° NW 12:19:58 10° NNE
Milstar 3 Cent rocket 3.3 12:11:54 11° WSW 12:15:44 25° S 12:19:45 10° SE
Meteor 1-31 Rocket 3.6 12:15:22 10° N 12:18:43 28° WNW 12:22:01 10° SW
Cosmos 1242 Rocket 2.5 12:15:24 10° S 12:18:49 84° E 12:22:18 10° N
Cosmos 2219 3.2 12:14:38 10° SSW 12:20:19 89° ESE 12:26:00 10° NNE
SeaSat 1 2.4 12:15:40 10° SSE 12:20:33 67° WSW 12:25:28 10° NNW
NOSS 3-2 (C) 4.4 12:14:02 10° NW 12:21:39 52° WSW 12:30:00 10° S
ADEOS 4.2 12:18:31 10° N 12:23:13 35° WNW 12:27:53 10° SW
MOS 1 Rocket 3.5 12:21:03 10° S 12:25:10 42° W 12:29:30 10° NNW
COSMO-SKYMED 1 2.9 12:22:26 10° S 12:26:35 44° W 12:30:46 10° NNW
Timation 2 Rocket 4.2 12:19:45 10° SSW 12:26:39 87° WNW 12:33:28 10° NNE
Cosmos 1470 Rocket 3.5 12:22:28 10° NNW 12:26:46 60° W 12:30:59 10° S
CZ-4C R/B 3.3 12:23:22 10° W 12:27:23 24° NW 12:32:02 10° NNE
ATLAS 2AS CENTAUR R/B 3.3 12:21:27 10° SW 12:29:07 53° NW 12:36:46 10° NNE
SAR-Lupe-4 4.5 12:27:31 10° SSE 12:31:00 54° ENE 12:34:30 10° N
Delta 2 Rocket 4.3 12:26:52 10° W 12:31:31 48° SSW 12:36:40 10° ESE
deb Chang Zheng 4 3.7 12:29:50 10° N 12:34:01 54° WNW 12:38:13 10° SSW
SJ-7 4.3 12:30:32 10° N 12:34:33 78° WNW 12:38:36 10° SSW
Nadezhda 1 Rocket 4.2 12:30:34 10° SSW 12:36:28 50° W 12:42:29 10° N
